2018-111Q (43890 NORAD) Tracking and Keplerian Element Data

This shows tracking and keplerian element data for the satellite.

Feedback or suggestion? Click here.




ElementValue
Catalog43890
Name2018-111Q
Epoch Orbit307
Epoch Day16.80457166
Epoch Year2019
RAAN286.979
Inclination97.7257
Eccentricity0.0009791
Argument of Perigee183.7027
Mean Anonmoly176.4124
Mean Motion14.96635439
Decay Rate-8.6E-07
L11 43890U 18111Q 19016.80457166 -.00000086 00000-0 -24419-5 0 9991
L22 43890 97.7257 286.9790 0009791 183.7027 176.4124 14.96635439 3073

Live tracking and technical data element details for 2018-111Q (NORAD 43890). 2018-111Q can be tracked NOW for your location showing map with azimuth and elevation plus other details from your city location.

Track the satellite on the map from your city or location and see movement details for azimuth, elevation, latitude, longitude, range, height, and movement on the map or in text.







IsCatalogInMostPopularTable: catalog: 43890, numindb: 15
Update: records affected: 1



GetName: 43890 2018-111Q

Hit Count: updated at: Thu, 17 Jan 2019 14:39:49 GMT